STARLINK-38111, 100152

Orbit data source: Space-Track

STARLINK-38111, 100152 is a payload satellite owned by SpaceX/Seattle (US) in SSO that was launched on Sat, 25 Jul 2026 UTC launched from the Air Force Western Test Range (AFWTR). Payload-class satellites include a variety of spacecraft equipped with specific instruments for various scientific and technological missions. These include communications satellites like Starlink; space stations such as the ISS; scientific satellites like the Hubble; Earth observation satellites from companies like Planet Labs, Umbra, and HawkEye 360; GPS; miniature CubeSats for education and research; and military/defense satellites.

Loading next visibility...
Identifier
100152, 2026-171E
Orbit
SSO
Country
Flag of USUS
Related business
Manufacturer
SpaceX/Seattle
Mission
Operational spacecraft
Bus & Motor
STARLINK V2MO, Unknown motor
Mass
575 kg wet, ~530 kg dry
Launch date (UTC)
2026-07-25 (3 weeks ago)
Launch vehicle
Unknown
Launch site
Air Force Western Test Range (AFWTR)
Object type
Payload
Rocket body
Debris
Shape & HBR
BOX + PAN, 17.7 m
Radar Cross Section
Large (>1 m²)

Expand to show TLE details & history
Last TLE update: 8 hours ago

TLE from 8 hours ago
0 STARLINK-38111
1 A0152U 26171E   26227.60118937  .00159176  00000-0  10492-2 0  9996
2 A0152  97.2826 259.4798 0000994 119.7546 240.3818 15.75170214  3320
Epoch: 2026-08-15T14:25Z
TLE epoch observation values (Epoch: 2026-08-15T14:25:42.761Z)
Latitude
-0.00005°
Longitude
79.04191°
Altitude
347.646 km
Speed
7.7 km/s
True Right ascension
17h 17m 55s
True Declination
0° 00' 00"
Sunlit
Object was in full shadow at epoch
Visualization orbit readout
Latitude
Unknown
Longitude
Unknown
Altitude
Unknown
Speed
Unknown
Apparent Right ascension
Unknown
Apparent Declination
Unknown
Sunlit
N/A
Visualization observer readout
Local Sidereal Time
12:55:27
Azimuth
Unknown
Elevation
Unknown
Doppler factor
Unknown
Orbital elements
Apogee altitude
341.702 km
Perigee altitude
340.366 km
Semi-major axis
6,719.171 km
Eccentricity
0.0001
Inclination
97.2826°
RAAN
259.4798°
Arg. of periapsis
119.7546°
True anomaly
240.3719°
Mean anomaly
240.3818°
Eccentric anomaly
240.37685°
Mean motion
3.94067 °/min
Orbital period
91.36 mins
BSTAR
0.0010492
Loading maneuver chart data...
Computing Atmospheric mass density...
Loading historical data...
Loading historical data...
Loading historical data...
Loading historical data...
Loading historical data...
Loading historical data...
Loading historical data...

Documentation

Showing up to 5 results
|